St. Francis, KS

12:47 PM CDT on May 21, 2018 (GMT -0500)
Cheyenne County Municipal

Weather History for KSYF - March, 2014

Change the Weather History Date:

Friday, March 14, 2014

  Actual Average Record
Temperature  
Mean Temperature 48 °F -  
Max Temperature 64 °F 57 °F 75 °F (2016)
Min Temperature 32 °F 26 °F 24 °F (2017)
Degree Days  
Heating Degree Days 18    
Moisture  
Dew Point 17 °F    
Average Humidity 35    
Maximum Humidity 72    
Minimum Humidity 9    
Precipitation  
Precipitation 0.00 in - - ()
Sea Level Pressure  
Sea Level Pressure 29.95 in    
Wind  
Wind Speed 11 mph (WSW)    
Max Wind Speed 18 mph    
Max Gust Speed 25 mph    
Visibility 10 miles    
Events      
Averages and records for this station are not official NWS values.
T = Trace of Precipitation, MM = Missing Value Source: NWS Daily Summary

Daily Weather History Graph

Daily Weather History Graph

Search for Another Location

Airport or City:

Astronomy

Mar. 14, 2014 Rise Set
Actual Time 8:00 AM CDT 7:53 PM CDT
Civil Twilight 7:33 AM CDT 8:20 PM CDT
Nautical Twilight 7:02 AM CDT 8:51 PM CDT
Astronomical Twilight 6:30 AM CDT 9:23 PM CDT
Moon 6:17 PM CDT (3/14) 6:41 AM CDT (3/14)
Length of Visible Light 12h 46m
Length of Day
11h 52m
Waxing Gibbous, 96% of the Moon is Illuminated
Mar 14
Waxing Gibbous
Mar 16
Full
Mar 23
Last Quarter
Mar 30
New
Apr 7
First Quarter

Hourly Weather History & Observations

Time (CDT) Temp. Windchill Dew Point Humidity Pressure Visibility Wind Dir Wind Speed Gust Speed Precip Events Conditions
12:15 AM 50.0 °F - 11.3 °F 21% 29.79 in 10.0 mi NW 13.8 mph 19.6 mph N/A   Clear
12:35 AM 50.0 °F - 10.9 °F 21% 29.81 in 10.0 mi NW 12.7 mph - N/A   Clear
12:55 AM 49.1 °F - 11.7 °F 22% 29.81 in 10.0 mi NW 13.8 mph - N/A   Clear
1:15 AM 48.4 °F - 12.2 °F 23% 29.82 in 10.0 mi NW 11.5 mph 17.3 mph N/A   Clear
1:35 AM 47.1 °F - 13.8 °F 26% 29.83 in 10.0 mi NW 15.0 mph 19.6 mph N/A   Clear
1:55 AM 46.9 °F - 15.6 °F 29% 29.85 in 10.0 mi NW 16.1 mph 25.3 mph N/A   Clear
2:15 AM 46.2 °F 39.3 °F 17.8 °F 32% 29.87 in 10.0 mi NNW 17.3 mph 24.2 mph N/A   Clear
2:35 AM 44.8 °F 38.7 °F 19.6 °F 37% 29.88 in 10.0 mi North 12.7 mph 19.6 mph N/A   Clear
2:55 AM 43.5 °F 36.4 °F 20.8 °F 41% 29.90 in 10.0 mi NNW 15.0 mph 20.7 mph N/A   Clear
3:15 AM 42.1 °F 35.2 °F 21.6 °F 44% 29.92 in 10.0 mi NNW 12.7 mph - N/A   Clear
3:35 AM 41.7 °F 35.2 °F 21.9 °F 45% 29.92 in 10.0 mi NNW 11.5 mph 18.4 mph N/A   Clear
3:55 AM 41.0 °F 34.3 °F 22.6 °F 48% 29.93 in 10.0 mi North 11.5 mph - N/A   Clear
4:15 AM 39.7 °F 34.3 °F 22.6 °F 50% 29.93 in 10.0 mi North 8.1 mph - N/A   Clear
4:35 AM 38.5 °F 32.7 °F 22.8 °F 53% 29.94 in 10.0 mi North 8.1 mph - N/A   Clear
4:55 AM 38.5 °F 32.1 °F 23.0 °F 54% 29.94 in 10.0 mi North 9.2 mph - N/A   Clear
5:15 AM 37.4 °F 30.3 °F 23.2 °F 57% 29.94 in 10.0 mi NNW 10.4 mph - N/A   Clear
5:35 AM 36.5 °F 30.3 °F 23.2 °F 59% 29.96 in 10.0 mi NNW 8.1 mph - N/A   Clear
5:55 AM 34.9 °F 32.0 °F 23.0 °F 62% 29.97 in 10.0 mi North 3.5 mph - N/A   Clear
6:15 AM 34.5 °F 28.6 °F 23.0 °F 63% 29.98 in 10.0 mi North 6.9 mph - N/A   Clear
6:35 AM 36.0 °F 30.3 °F 23.0 °F 59% 29.99 in 10.0 mi North 6.9 mph - N/A   Clear
6:55 AM 35.6 °F 30.7 °F 23.0 °F 60% 29.98 in 10.0 mi North 5.8 mph - N/A   Clear
7:15 AM 33.8 °F - 23.0 °F 65% 29.99 in 10.0 mi Calm Calm - N/A   Clear
7:35 AM 32.5 °F 26.2 °F 23.2 °F 68% 30.00 in 10.0 mi NW 6.9 mph - N/A   Clear
7:55 AM 32.9 °F 27.5 °F 23.0 °F 67% 30.00 in 10.0 mi NNW 5.8 mph - N/A   Clear
8:15 AM 32.4 °F 29.1 °F 22.5 °F 67% 30.02 in 10.0 mi SW 3.5 mph - N/A   Clear
8:35 AM 32.0 °F 27.5 °F 23.2 °F 70% 30.03 in 10.0 mi SW 4.6 mph - N/A   Clear
8:55 AM 32.7 °F 29.6 °F 24.6 °F 72% 30.04 in 10.0 mi South 3.5 mph - N/A   Clear
9:15 AM 35.6 °F - 24.4 °F 64% 30.04 in 10.0 mi Calm Calm - N/A   Clear
9:35 AM 38.3 °F 34.8 °F 25.3 °F 60% 30.05 in 10.0 mi SSW 4.6 mph - N/A   Clear
9:55 AM 40.5 °F 37.3 °F 25.2 °F 54% 30.05 in 10.0 mi SW 4.6 mph - N/A   Clear
10:15 AM 42.1 °F 37.7 °F 24.8 °F 50% 30.05 in 10.0 mi West 6.9 mph - N/A   Clear
10:35 AM 43.7 °F 39.7 °F 25.2 °F 48% 30.05 in 10.0 mi West 6.9 mph - N/A   Clear
10:55 AM 46.9 °F - 25.3 °F 43% 30.06 in 10.0 mi West 9.2 mph - N/A   Clear
11:15 AM 48.2 °F - 24.4 °F 39% 30.05 in 10.0 mi West 4.6 mph - N/A   Clear
11:35 AM 49.8 °F - 24.1 °F 37% 30.05 in 10.0 mi West 6.9 mph - N/A   Clear
11:55 AM 51.1 °F - 22.3 °F 32% 30.05 in 10.0 mi West 6.9 mph - N/A   Clear
12:15 PM 52.0 °F - 19.8 °F 28% 30.05 in 10.0 mi Calm Calm - N/A   Clear
12:35 PM 53.1 °F - 19.9 °F 27% 30.05 in 10.0 mi WSW 4.6 mph - N/A   Clear
12:55 PM 53.6 °F - 20.7 °F 28% 30.04 in 10.0 mi West 6.9 mph - N/A   Clear
1:15 PM 54.3 °F - 20.5 °F 27% 30.04 in 10.0 mi West 5.8 mph 9.2 mph N/A   Clear
1:35 PM 55.9 °F - 19.4 °F 24% 30.03 in 10.0 mi WSW 9.2 mph 18.4 mph N/A   Clear
1:55 PM 57.2 °F - 19.9 °F 24% 30.03 in 10.0 mi WSW 11.5 mph 17.3 mph N/A   Clear
2:15 PM 57.9 °F - 18.9 °F 22% 30.02 in 10.0 mi WSW 10.4 mph 19.6 mph N/A   Clear
2:35 PM 58.6 °F - 18.1 °F 21% 30.01 in 10.0 mi SW 13.8 mph - N/A   Clear
2:55 PM 59.5 °F - 15.4 °F 18% 29.99 in 10.0 mi West 11.5 mph 17.3 mph N/A   Clear
3:15 PM 60.1 °F - 13.5 °F 16% 29.98 in 10.0 mi SW 11.5 mph 19.6 mph N/A   Clear
3:35 PM 61.0 °F - 12.0 °F 15% 29.97 in 10.0 mi WSW 11.5 mph 19.6 mph N/A   Clear
3:55 PM 61.3 °F - 9.3 °F 13% 29.96 in 10.0 mi SW 11.5 mph 17.3 mph N/A   Clear
4:15 PM 62.4 °F - 9.0 °F 12% 29.95 in 10.0 mi SW 10.4 mph 18.4 mph N/A   Clear
4:35 PM 62.1 °F - 7.7 °F 12% 29.94 in 10.0 mi SW 12.7 mph 18.4 mph N/A   Clear
4:55 PM 63.3 °F - 6.6 °F 11% 29.93 in 10.0 mi WSW 12.7 mph 20.7 mph N/A   Clear
5:15 PM 63.5 °F - 6.6 °F 11% 29.93 in 10.0 mi WSW 12.7 mph 19.6 mph N/A   Clear
5:35 PM 63.3 °F - 6.6 °F 11% 29.92 in 10.0 mi SW 15.0 mph 18.4 mph N/A   Clear
5:55 PM 63.5 °F - 6.1 °F 10% 29.91 in 10.0 mi SW 12.7 mph - N/A   Clear
6:15 PM 63.7 °F - 5.0 °F 10% 29.90 in 10.0 mi SSW 12.7 mph 19.6 mph N/A   Clear
6:35 PM 63.1 °F - 3.7 °F 9% 29.90 in 10.0 mi SSW 12.7 mph 16.1 mph N/A   Clear
6:55 PM 62.1 °F - 5.4 °F 11% 29.90 in 10.0 mi SW 13.8 mph 21.9 mph N/A   Clear
7:15 PM 60.3 °F - 9.9 °F 14% 29.90 in 10.0 mi SSW 15.0 mph 20.7 mph N/A   Clear
7:35 PM 57.6 °F - 13.5 °F 18% 29.91 in 10.0 mi SSW 12.7 mph - N/A   Clear
7:55 PM 54.0 °F - 15.3 °F 22% 29.91 in 10.0 mi SSW 10.4 mph - N/A   Clear
8:15 PM 50.5 °F - 16.3 °F 26% 29.91 in 10.0 mi SSW 11.5 mph - N/A   Clear
8:35 PM 48.4 °F - 16.7 °F 28% 29.91 in 10.0 mi South 13.8 mph - N/A   Clear
8:55 PM 48.2 °F - 16.0 °F 28% 29.91 in 10.0 mi South 15.0 mph - N/A   Clear
9:15 PM 47.5 °F - 15.6 °F 28% 29.91 in 10.0 mi SSW 17.3 mph - N/A   Clear
9:35 PM 46.9 °F - 15.6 °F 29% 29.90 in 10.0 mi South 17.3 mph - N/A   Clear
9:55 PM 46.6 °F - 14.9 °F 28% 29.90 in 10.0 mi South 18.4 mph - N/A   Clear
10:15 PM 46.2 °F 39.3 °F 14.4 °F 28% 29.90 in 10.0 mi South 17.3 mph - N/A   Clear
10:35 PM 45.1 °F 37.6 °F 14.4 °F 29% 29.90 in 10.0 mi South 18.4 mph - N/A   Clear
10:55 PM 45.1 °F 37.6 °F 13.3 °F 28% 29.90 in 10.0 mi South 18.4 mph - N/A   Clear
11:15 PM 44.6 °F 37.2 °F 12.6 °F 27% 29.90 in 10.0 mi South 17.3 mph - N/A   Clear
11:35 PM 43.9 °F 36.5 °F 12.6 °F 28% 29.90 in 10.0 mi South 16.1 mph - N/A   Clear
11:55 PM 43.7 °F 36.3 °F 13.8 °F 30% 29.89 in 10.0 mi South 16.1 mph - N/A   Clear